Overview Statistics Trail Chart Weather Telemetry Raw packets
 

This is the latest recevied weather packets stored in our database for station/object W5ADC. If no packets are shown the sender has not sent any weather packets the latest 10 day(s).

<< 9 10 11 12 13 14 15 >>
Time Temp. Humidity Pressure Rain* Wind** Luminosity Snow
1788548196 35.56° C 47% 1010.2 hPa 0 mm - 751 W/m² -
1788547907 35.56° C 49% 1010 hPa 0 mm - 749 W/m² -
1788547589 35° C 51% 1009.9 hPa 0 mm - 753 W/m² -
1788547284 34.44° C 51% 1010.2 hPa 0 mm - 756 W/m² -
1788546980 34.44° C 51% 1010.3 hPa 0 mm - 572 W/m² -
1788546674 34.44° C 52% 1010.3 hPa 0 mm - 804 W/m² -
1788546370 34.44° C 52% 1010.5 hPa 0 mm - 662 W/m² -
1788546064 34.44° C 53% 1010.6 hPa 0 mm - 826 W/m² -
1788545761 33.89° C 54% 1010.5 hPa 0 mm - 724 W/m² -
1788545460 33.89° C 54% 1010.7 hPa 0 mm - 759 W/m² -
1788545155 33.89° C 53% 1010.9 hPa 0 mm - 754 W/m² -
1788544850 33.33° C 53% 1010.8 hPa 0 mm - 780 W/m² -
1788544544 33.33° C 54% 1010.9 hPa 0 mm - 582 W/m² -
1788544243 33.33° C 52% 1010.8 hPa 0 mm - 424 W/m² -
1788543938 33.89° C 52% 1010.9 hPa 0 mm - 704 W/m² -
1788543635 33.33° C 55% 1011 hPa 0 mm - 770 W/m² -
1788543334 33.89° C 56% 1011.1 hPa 0 mm - 739 W/m² -
1788543030 33.33° C 56% 1011.1 hPa 0 mm - 769 W/m² -
1788542726 32.78° C 59% 1011.1 hPa 0 mm - 526 W/m² -
1788542425 32.78° C 61% 1011.3 hPa 0 mm - 679 W/m² -
1788542120 32.78° C 59% 1011.5 hPa 0 mm - 379 W/m² -
1788541816 32.78° C 60% 1011.5 hPa 0 mm - 711 W/m² -
1788541511 32.22° C 61% 1011.5 hPa 0 mm - 696 W/m² -
1788541208 32.22° C 61% 1011.5 hPa 0 mm - 676 W/m² -
1788540906 32.22° C 62% 1011.8 hPa 0 mm - 664 W/m² -

* Rain latest hour (hover to see other rain measurements)
** Current wind speed in m/s (hover to see current wind gust speed)